State College, PA

10:11 AM EDT on April 19, 2018 (GMT -0400)
University Park

Weather History for KUNV - February, 2014

Change the Weather History Date:

Friday, February 21, 2014

  Actual Average Record
Temperature  
Mean Temperature 42 °F -  
Max Temperature 46 °F 38 °F 71 °F (2018)
Min Temperature 39 °F 22 °F -2 °F (1968)
Degree Days  
Heating Degree Days 22    
Moisture  
Dew Point 26 °F    
Average Humidity 54    
Maximum Humidity 87    
Minimum Humidity 33    
Precipitation  
Precipitation 0.00 in - - ()
Sea Level Pressure  
Sea Level Pressure 29.78 in    
Wind  
Wind Speed 7 mph (WSW)    
Max Wind Speed 24 mph    
Max Gust Speed 31 mph    
Visibility 10 miles    
Events Rain    
Averages and records for this station are not official NWS values.
T = Trace of Precipitation, MM = Missing Value Source: NWS Daily Summary

Daily Weather History Graph

Daily Weather History Graph

Search for Another Location

Airport or City:

Astronomy

Feb. 21, 2014 Rise Set
Actual Time 6:57 AM EST 5:53 PM EST
Civil Twilight 6:29 AM EST 6:21 PM EST
Nautical Twilight 5:57 AM EST 6:53 PM EST
Astronomical Twilight 5:25 AM EST 7:24 PM EST
Moon No Moon Rise 10:17 AM EST (2/21)
Length of Visible Light 11h 51m
Length of Day
10h 55m
Waning Gibbous, 61% of the Moon is Illuminated
Feb 21
Waning Gibbous
Feb 22
Last Quarter
Mar 1
New
Mar 8
First Quarter
Mar 16
Full

Hourly Weather History & Observations

Time (EST) Temp. Windchill Dew Point Humidity Pressure Visibility Wind Dir Wind Speed Gust Speed Precip Events Conditions
12:15 AM 44.6 °F 42.2 °F 25.5 °F 47% 29.83 in 10.0 mi SSW 4.6 mph - N/A   Mostly Cloudy
12:35 AM 42.8 °F 39.3 °F 26.6 °F 53% 29.83 in 10.0 mi WSW 5.8 mph - N/A   Scattered Clouds
12:55 AM 43.9 °F 38.3 °F 27.0 °F 51% 29.81 in 10.0 mi WSW 10.4 mph - N/A   Clear
1:15 AM 46.2 °F 42.7 °F 26.6 °F 46% 29.82 in 10.0 mi WSW 6.9 mph - N/A   Clear
1:35 AM 46.8 °F - 26.8 °F 46% 29.81 in 10.0 mi SW 6.9 mph - N/A   Clear
1:55 AM 44.8 °F - 27.5 °F 51% 29.79 in 10.0 mi Calm Calm - N/A   Clear
2:15 AM 45.7 °F 44.4 °F 27.1 °F 48% 29.79 in 10.0 mi WSW 3.5 mph - N/A   Clear
2:35 AM 44.2 °F 42.7 °F 27.1 °F 51% 29.78 in 10.0 mi South 3.5 mph - N/A   Clear
2:55 AM 42.4 °F - 27.3 °F 55% 29.78 in 10.0 mi Calm Calm - N/A   Clear
3:15 AM 42.8 °F - 26.8 °F 53% 29.76 in 10.0 mi Calm Calm - N/A   Scattered Clouds
3:35 AM 42.8 °F - 26.8 °F 53% 29.76 in 10.0 mi Calm Calm - N/A   Scattered Clouds
3:55 AM 41.7 °F - 27.3 °F 57% 29.75 in 10.0 mi Calm Calm - N/A   Clear
4:15 AM 39.7 °F - 27.3 °F 61% 29.74 in 10.0 mi Calm Calm - N/A   Clear
4:35 AM 41.2 °F - 27.7 °F 59% 29.74 in 10.0 mi Calm Calm - N/A   Clear
4:55 AM 40.6 °F - 28.0 °F 61% 29.74 in 10.0 mi Calm Calm - N/A   Clear
5:15 AM 44.1 °F - 29.1 °F 56% 29.73 in 10.0 mi Calm Calm - N/A   Clear
5:35 AM 41.2 °F 38.2 °F 27.3 °F 58% 29.72 in 10.0 mi North 4.6 mph - N/A   Clear
5:53 AM 39.2 °F - 28.4 °F 65% 29.73 in 10.0 mi Calm Calm - N/A   Clear
6:53 AM 39.2 °F 33.6 °F 28.4 °F 65% 29.69 in 10.0 mi NNW 8.1 mph - N/A   Mostly Cloudy
7:53 AM 41.0 °F - 30.2 °F 65% 29.68 in 10.0 mi Calm Calm - N/A   Overcast
8:53 AM 42.8 °F - 32.0 °F 66% 29.66 in 10.0 mi Calm Calm - N/A   Overcast
9:53 AM 41.0 °F 35.2 °F 33.8 °F 76% 29.64 in 4.0 mi WNW 9.2 mph - N/A Rain Light Rain
10:53 AM 41.0 °F 34.3 °F 37.4 °F 87% 29.71 in 4.0 mi SW 11.5 mph - N/A Rain Light Rain
10:54 AM 41.0 °F 34.3 °F 37.4 °F 87% 29.71 in 4.0 mi SW 11.5 mph - N/A Rain Light Rain
11:53 AM 39.2 °F 29.6 °F 30.2 °F 70% 29.78 in 7.0 mi West 19.6 mph 28.8 mph N/A   Overcast
12:40 PM 39.2 °F 31.2 °F 28.4 °F 65% 29.75 in 10.0 mi WSW 13.8 mph - N/A   Overcast
12:53 PM 39.2 °F 32.0 °F 28.4 °F 65% 29.74 in 10.0 mi SW 11.5 mph - N/A   Overcast
1:53 PM 41.0 °F 34.3 °F 26.6 °F 57% 29.70 in 10.0 mi SW 11.5 mph - N/A   Overcast
2:53 PM 44.6 °F 38.8 °F 23.0 °F 43% 29.71 in 10.0 mi SW 11.5 mph - N/A   Clear
3:53 PM 44.6 °F 38.8 °F 23.0 °F 43% 29.72 in 10.0 mi SW 11.5 mph - N/A   Clear
4:50 PM 44.6 °F 38.8 °F 23.0 °F 43% 29.72 in 10.0 mi SW 11.5 mph - N/A   Clear
5:53 PM 44.6 °F 38.1 °F 23.0 °F 43% 29.76 in 10.0 mi WSW 13.8 mph - N/A   Scattered Clouds
6:53 PM 42.8 °F 35.8 °F 21.2 °F 42% 29.80 in 10.0 mi WSW 13.8 mph - N/A   Scattered Clouds
7:53 PM 42.8 °F 36.6 °F 23.0 °F 46% 29.83 in 10.0 mi West 11.5 mph 17.3 mph N/A   Scattered Clouds
8:53 PM 41.0 °F 33.9 °F 21.2 °F 45% 29.85 in 10.0 mi West 12.7 mph 19.6 mph N/A   Clear
9:55 PM 41.4 °F 33.6 °F 19.9 °F 42% 29.87 in 10.0 mi SW 15.0 mph 19.6 mph N/A   Clear
10:15 PM 40.8 °F 34.5 °F 20.1 °F 44% 29.87 in 10.0 mi SW 10.4 mph - N/A   Clear
10:35 PM 41.0 °F 33.9 °F 19.2 °F 42% 29.88 in 10.0 mi SW 12.7 mph 18.4 mph N/A   Clear
10:55 PM 40.3 °F 32.2 °F 19.2 °F 43% 29.88 in 10.0 mi SW 15.0 mph - N/A   Clear
11:15 PM 40.5 °F 32.1 °F 18.5 °F 41% 29.89 in 10.0 mi WSW 16.1 mph 21.9 mph N/A   Clear
11:35 PM 39.9 °F 31.1 °F 18.0 °F 41% 29.91 in 10.0 mi WSW 17.3 mph - N/A   Clear
11:55 PM 40.3 °F 29.9 °F 13.3 °F 33% 29.91 in 10.0 mi WSW 24.2 mph 31.1 mph N/A   Clear